Overview Statistics Trail Chart Weather Telemetry Raw packets
 

This is the latest recevied weather packets stored in our database for station/object N0HOT. If no packets are shown the sender has not sent any weather packets the latest 10 day(s).

<< 41 42 43 44 45 46 47 >>
Time Temp. Humidity Pressure Rain* Wind** Luminosity Snow
1788376116 30° C 54% 1012.2 hPa 0 mm - 700 W/m² -
1788375815 30° C 57% 1012.2 hPa 0 mm - 719 W/m² -
1788375512 29.44° C 56% 1012.2 hPa 0 mm - 691 W/m² -
1788375206 29.44° C 59% 1012.2 hPa 0 mm - 648 W/m² -
1788374902 29.44° C 59% 1012.5 hPa 0 mm - 618 W/m² -
1788374598 28.89° C 60% 1012.5 hPa 0 mm - 691 W/m² -
1788374293 28.89° C 59% 1012.5 hPa 0 mm - 610 W/m² -
1788373989 28.89° C 63% 1012.5 hPa 0 mm - 580 W/m² -
1788373685 28.33° C 62% 1012.5 hPa 0 mm - 451 W/m² -
1788373381 28.33° C 63% 1012.5 hPa 0 mm - 383 W/m² -
1788373077 28.33° C 64% 1012.8 hPa 0 mm - 307 W/m² -
1788372772 28.33° C 64% 1012.5 hPa 0 mm - 505 W/m² -
1788372466 28.33° C 65% 1012.5 hPa 0 mm - 367 W/m² -
1788372162 28.33° C 63% 1012.5 hPa 0 mm - 419 W/m² -
1788371857 28.33° C 66% 1012.5 hPa 0 mm - 472 W/m² -
1788371553 28.33° C 66% 1012.8 hPa 0 mm - 274 W/m² -
1788371248 28.33° C 66% 1012.5 hPa 0 mm - 390 W/m² -
1788370944 28.33° C 67% 1012.8 hPa 0 mm - 510 W/m² -
1788370640 28.33° C 66% 1012.5 hPa 0 mm - 265 W/m² -
1788370339 27.78° C 64% 1012.5 hPa 0 mm - 455 W/m² -
1788370034 27.78° C 63% 1012.8 hPa 0 mm - 574 W/m² -
1788369734 27.78° C 68% 1012.5 hPa 0 mm - 679 W/m² -
1788369429 27.22° C 68% 1012.8 hPa 0 mm - 594 W/m² -
1788369124 27.22° C 69% 1012.5 hPa 0 mm - 517 W/m² -
1788368821 27.22° C 69% 1012.5 hPa 0 mm - 450 W/m² -

* Rain latest hour (hover to see other rain measurements)
** Current wind speed in m/s (hover to see current wind gust speed)